#Datum;Uhrzeit;WR;Pac;DaySum;Status;WR;Pac;DaySum;Status;Pdc1;Udc;Temp;WR;Pac;DaySum;Status;Pdc1;Udc;Temp;WR;Pac;DaySum;Status;Pdc1;Udc;Temp;WR;Pac;DaySum;Status;Pdc1;Pdc2;Udc1;Udc2;Temp;WR;Pac;DaySum;Status;Pdc1;Pdc2;Udc1;Udc2;Temp;WR;Pac;DaySum;Status;Pdc1;Udc;Temp;WR;Pac;DaySum;Status;Pdc1;Udc;Temp;WR;Pac;DaySum;Status;Pdc1;Udc;Temp
12.02.20;23:55:00;1;580;24027;0;2;0;9087;0;0;0;0;3;0;5915;0;0;0;0;4;0;8611;0;0;0;0;5;0;20660;0;0;0;0;0;0;6;0;15326;0;0;0;0;0;0;7;0;12244;0;0;0;0;8;0;12117;0;0;0;0;9;0;6615;0;0;0;0
12.02.20;23:50:00;1;319;23981;0;2;0;9087;0;0;0;0;3;0;5915;0;0;0;0;4;0;8611;0;0;0;0;5;0;20660;0;0;0;0;0;0;6;0;15326;0;0;0;0;0;0;7;0;12244;0;0;0;0;8;0;12117;0;0;0;0;9;0;6615;0;0;0;0
12.02.20;23:45:00;1;240;23956;0;2;0;9087;0;0;0;0;3;0;5915;0;0;0;0;4;0;8611;0;0;0;0;5;0;20660;0;0;0;0;0;0;6;0;15326;0;0;0;0;0;0;7;0;12244;0;0;0;0;8;0;12117;0;0;0;0;9;0;6615;0;0;0;0
12.02.20;23:40:00;1;240;23936;0;2;0;9087;0;0;0;0;3;0;5915;0;0;0;0;4;0;8611;0;0;0;0;5;0;20660;0;0;0;0;0;0;6;0;15326;0;0;0;0;0;0;7;0;12244;0;0;0;0;8;0;12117;0;0;0;0;9;0;6615;0;0;0;0
12.02.20;23:35:00;1;908;23916;0;2;0;9087;0;0;0;0;3;0;5915;0;0;0;0;4;0;8611;0;0;0;0;5;0;20660;0;0;0;0;0;0;6;0;15326;0;0;0;0;0;0;7;0;12244;0;0;0;0;8;0;12117;0;0;0;0;9;0;6615;0;0;0;0
12.02.20;23:30:00;1;240;23873;0;2;0;9087;0;0;0;0;3;0;5915;0;0;0;0;4;0;8611;0;0;0;0;5;0;20660;0;0;0;0;0;0;6;0;15326;0;0;0;0;0;0;7;0;12244;0;0;0;0;8;0;12117;0;0;0;0;9;0;6615;0;0;0;0
12.02.20;23:25:00;1;240;23853;0;2;0;9087;0;0;0;0;3;0;5915;0;0;0;0;4;0;8611;0;0;0;0;5;0;20660;0;0;0;0;0;0;6;0;15326;0;0;0;0;0;0;7;0;12244;0;0;0;0;8;0;12117;0;0;0;0;9;0;6615;0;0;0;0
12.02.20;23:20:00;1;249;23833;0;2;0;9087;0;0;0;0;3;0;5915;0;0;0;0;4;0;8611;0;0;0;0;5;0;20660;0;0;0;0;0;0;6;0;15326;0;0;0;0;0;0;7;0;12244;0;0;0;0;8;0;12117;0;0;0;0;9;0;6615;0;0;0;0
12.02.20;23:15:00;1;543;23810;0;2;0;9087;0;0;0;0;3;0;5915;0;0;0;0;4;0;8611;0;0;0;0;5;0;20660;0;0;0;0;0;0;6;0;15326;0;0;0;0;0;0;7;0;12244;0;0;0;0;8;0;12117;0;0;0;0;9;0;6615;0;0;0;0
12.02.20;23:10:00;1;349;23755;0;2;0;9087;0;0;0;0;3;0;5915;0;0;0;0;4;0;8611;0;0;0;0;5;0;20660;0;0;0;0;0;0;6;0;15326;0;0;0;0;0;0;7;0;12244;0;0;0;0;8;0;12117;0;0;0;0;9;0;6615;0;0;0;0
12.02.20;23:05:00;1;347;23725;0;2;0;9087;0;0;0;0;3;0;5915;0;0;0;0;4;0;8611;0;0;0;0;5;0;20660;0;0;0;0;0;0;6;0;15326;0;0;0;0;0;0;7;0;12244;0;0;0;0;8;0;12117;0;0;0;0;9;0;6615;0;0;0;0
12.02.20;23:00:00;1;309;23696;0;2;0;9087;0;0;0;0;3;0;5915;0;0;0;0;4;0;8611;0;0;0;0;5;0;20660;0;0;0;0;0;0;6;0;15326;0;0;0;0;0;0;7;0;12244;0;0;0;0;8;0;12117;0;0;0;0;9;0;6615;0;0;0;0
12.02.20;22:55:00;1;310;23671;0;2;0;9087;0;0;0;0;3;0;5915;0;0;0;0;4;0;8611;0;0;0;0;5;0;20660;2;0;0;0;0;0;6;0;15326;2;0;0;0;0;0;7;0;12244;0;0;0;0;8;0;12117;0;0;0;0;9;0;6615;0;0;0;0
12.02.20;22:50:00;1;1000;23624;0;2;0;9087;0;0;0;0;3;0;5915;0;0;0;0;4;0;8611;0;0;0;0;5;0;20660;2;0;0;0;0;0;6;0;15326;2;0;0;0;0;0;7;0;12244;0;0;0;0;8;0;12117;0;0;0;0;9;0;6615;0;0;0;0
12.02.20;22:45:00;1;357;23596;0;2;0;9087;0;0;0;0;3;0;5915;0;0;0;0;4;0;8611;0;0;0;0;5;0;20660;2;0;0;0;0;0;6;0;15326;2;0;0;0;0;0;7;0;12244;0;0;0;0;8;0;12117;0;0;0;0;9;0;6615;0;0;0;0
12.02.20;22:40:00;1;346;23566;0;2;0;9087;0;0;0;0;3;0;5915;0;0;0;0;4;0;8611;0;0;0;0;5;0;20660;2;0;0;0;0;0;6;0;15326;2;0;0;0;0;0;7;0;12244;0;0;0;0;8;0;12117;0;0;0;0;9;0;6615;0;0;0;0
12.02.20;22:35:00;1;333;23540;0;2;0;9087;0;0;0;0;3;0;5915;0;0;0;0;4;0;8611;0;0;0;0;5;0;20660;2;0;0;0;0;0;6;0;15326;2;0;0;0;0;0;7;0;12244;0;0;0;0;8;0;12117;0;0;0;0;9;0;6615;0;0;0;0
12.02.20;22:30:00;1;578;23512;0;2;0;9087;0;0;0;0;3;0;5915;0;0;0;0;4;0;8611;0;0;0;0;5;0;20660;2;0;0;0;0;0;6;0;15326;2;0;0;0;0;0;7;0;12244;0;0;0;0;8;0;12117;0;0;0;0;9;0;6615;0;0;0;0
12.02.20;22:25:00;1;358;23459;0;2;0;9087;0;0;0;0;3;0;5915;0;0;0;0;4;0;8611;0;0;0;0;5;0;20660;2;0;0;0;0;0;6;0;15326;2;0;0;0;0;0;7;0;12244;0;0;0;0;8;0;12117;0;0;0;0;9;0;6615;0;0;0;0
12.02.20;22:20:00;1;521;23428;0;2;0;9087;0;0;0;0;3;0;5915;0;0;0;0;4;0;8611;0;0;0;0;5;0;20660;2;0;0;0;0;0;6;0;15326;2;0;0;0;0;0;7;0;12244;0;0;0;0;8;0;12117;0;0;0;0;9;0;6615;0;0;0;0
12.02.20;22:15:00;1;521;23385;0;2;0;9087;0;0;0;0;3;0;5915;0;0;0;0;4;0;8611;0;0;0;0;5;0;20660;2;0;0;0;0;0;6;0;15326;2;0;0;0;0;0;7;0;12244;0;0;0;0;8;0;12117;0;0;0;0;9;0;6615;0;0;0;0
12.02.20;22:10:00;1;817;23345;0;2;0;9087;0;0;0;0;3;0;5915;0;0;0;0;4;0;8611;0;0;0;0;5;0;20660;2;0;0;0;0;0;6;0;15326;2;0;0;0;0;0;7;0;12244;0;0;0;0;8;0;12117;0;0;0;0;9;0;6615;0;0;0;0
12.02.20;22:05:00;1;437;23280;0;2;0;9087;0;0;0;0;3;0;5915;0;0;0;0;4;0;8611;0;0;0;0;5;0;20660;2;0;0;0;0;0;6;0;15326;2;0;0;0;0;0;7;0;12244;0;0;0;0;8;0;12117;0;0;0;0;9;0;6615;0;0;0;0
12.02.20;22:00:00;1;481;23244;0;2;0;9087;0;0;0;0;3;0;5915;0;0;0;0;4;0;8611;0;0;0;0;5;0;20660;2;0;0;0;0;0;6;0;15326;2;0;0;0;0;0;7;0;12244;0;0;0;0;8;0;12117;0;0;0;0;9;0;6615;0;0;0;0
12.02.20;21:55:00;1;446;23203;0;2;0;9087;0;0;0;0;3;0;5915;0;0;0;0;4;0;8611;0;0;0;0;5;0;20660;2;0;0;0;0;0;6;0;15326;2;0;0;0;0;0;7;0;12244;0;0;0;0;8;0;12117;0;0;0;0;9;0;6615;0;0;0;0
12.02.20;21:50:00;1;447;23166;0;2;0;9087;0;0;0;0;3;0;5915;0;0;0;0;4;0;8611;0;0;0;0;5;0;20660;2;0;0;0;0;0;6;0;15326;2;0;0;0;0;0;7;0;12244;0;0;0;0;8;0;12117;0;0;0;0;9;0;6615;0;0;0;0
12.02.20;21:45:00;1;445;23128;0;2;0;9087;0;0;0;0;3;0;5915;0;0;0;0;4;0;8611;0;0;0;0;5;0;20660;2;0;0;0;0;0;6;0;15326;2;0;0;0;0;0;7;0;12244;0;0;0;0;8;0;12117;0;0;0;0;9;0;6615;0;0;0;0
12.02.20;21:40:00;1;454;23069;0;2;0;9087;0;0;0;0;3;0;5915;0;0;0;0;4;0;8611;0;0;0;0;5;0;20660;2;0;0;0;0;0;6;0;15326;2;0;0;0;0;0;7;0;12244;0;0;0;0;8;0;12117;0;0;0;0;9;0;6615;0;0;0;0
12.02.20;21:35:00;1;604;23031;0;2;0;9087;0;0;0;0;3;0;5915;0;0;0;0;4;0;8611;0;0;0;0;5;0;20660;2;0;0;0;0;0;6;0;15326;2;0;0;0;0;0;7;0;12244;0;0;0;0;8;0;12117;0;0;0;0;9;0;6615;0;0;0;0
12.02.20;21:30:00;1;510;22987;0;2;0;9087;0;0;0;0;3;0;5915;0;0;0;0;4;0;8611;0;0;0;0;5;0;20660;2;0;0;0;0;0;6;0;15326;2;0;0;0;0;0;7;0;12244;0;0;0;0;8;0;12117;0;0;0;0;9;0;6615;0;0;0;0
12.02.20;21:25:00;1;581;22943;0;2;0;9087;0;0;0;0;3;0;5915;0;0;0;0;4;0;8611;0;0;0;0;5;0;20660;2;0;0;0;0;0;6;0;15326;2;0;0;0;0;0;7;0;12244;0;0;0;0;8;0;12117;0;0;0;0;9;0;6615;0;0;0;0
12.02.20;21:20:00;1;631;22870;0;2;0;9087;0;0;0;0;3;0;5915;0;0;0;0;4;0;8611;0;0;0;0;5;0;20660;2;0;0;0;0;0;6;0;15326;2;0;0;0;0;0;7;0;12244;0;0;0;0;8;0;12117;0;0;0;0;9;0;6615;0;0;0;0
12.02.20;21:15:00;1;729;22815;0;2;0;9087;0;0;0;0;3;0;5915;0;0;0;0;4;0;8611;0;0;0;0;5;0;20660;2;0;0;0;0;0;6;0;15326;2;0;0;0;0;0;7;0;12244;0;0;0;0;8;0;12117;0;0;0;0;9;0;6615;0;0;0;0
12.02.20;21:10:00;1;721;22755;0;2;0;9087;0;0;0;0;3;0;5915;0;0;0;0;4;0;8611;0;0;0;0;5;0;20660;2;0;0;0;0;0;6;0;15326;2;0;0;0;0;0;7;0;12244;0;0;0;0;8;0;12117;0;0;0;0;9;0;6615;0;0;0;0
12.02.20;21:05:00;1;759;22694;0;2;0;9087;0;0;0;0;3;0;5915;0;0;0;0;4;0;8611;0;0;0;0;5;0;20660;2;0;0;0;0;0;6;0;15326;2;0;0;0;0;0;7;0;12244;0;0;0;0;8;0;12117;0;0;0;0;9;0;6615;0;0;0;0
12.02.20;21:00:00;1;1744;22631;0;2;0;9087;0;0;0;0;3;0;5915;0;0;0;0;4;0;8611;0;0;0;0;5;0;20660;2;0;0;0;0;0;6;0;15326;2;0;0;0;0;0;7;0;12244;0;0;0;0;8;0;12117;0;0;0;0;9;0;6615;0;0;0;0
12.02.20;20:55:00;1;2927;22433;0;2;0;9087;0;0;0;0;3;0;5915;0;0;0;0;4;0;8611;0;0;0;0;5;0;20660;2;0;0;0;0;0;6;0;15326;2;0;0;0;0;0;7;0;12244;0;0;0;0;8;0;12117;0;0;0;0;9;0;6615;0;0;0;0
12.02.20;20:50:00;1;834;22226;0;2;0;9087;0;0;0;0;3;0;5915;0;0;0;0;4;0;8611;0;0;0;0;5;0;20660;2;0;0;0;0;0;6;0;15326;2;0;0;0;0;0;7;0;12244;0;0;0;0;8;0;12117;0;0;0;0;9;0;6615;0;0;0;0
12.02.20;20:45:00;1;693;22161;0;2;0;9087;0;0;0;0;3;0;5915;0;0;0;0;4;0;8611;0;0;0;0;5;0;20660;2;0;0;0;0;0;6;0;15326;2;0;0;0;0;0;7;0;12244;0;0;0;0;8;0;12117;0;0;0;0;9;0;6615;0;0;0;0
12.02.20;20:40:00;1;687;22102;0;2;0;9087;0;0;0;0;3;0;5915;0;0;0;0;4;0;8611;0;0;0;0;5;0;20660;2;0;0;0;0;0;6;0;15326;2;0;0;0;0;0;7;0;12244;0;0;0;0;8;0;12117;0;0;0;0;9;0;6615;0;0;0;0
12.02.20;20:35:00;1;697;22022;0;2;0;9087;0;0;0;0;3;0;5915;0;0;0;0;4;0;8611;0;0;0;0;5;0;20660;2;0;0;0;0;0;6;0;15326;2;0;0;0;0;0;7;0;12244;0;0;0;0;8;0;12117;0;0;0;0;9;0;6615;0;0;0;0
12.02.20;20:30:00;1;692;21964;0;2;0;9087;0;0;0;0;3;0;5915;0;0;0;0;4;0;8611;0;0;0;0;5;0;20660;2;0;0;0;0;0;6;0;15326;2;0;0;0;0;0;7;0;12244;0;0;0;0;8;0;12117;0;0;0;0;9;0;6615;0;0;0;0
12.02.20;20:25:00;1;650;21905;0;2;0;9087;0;0;0;0;3;0;5915;0;0;0;0;4;0;8611;0;0;0;0;5;0;20660;2;0;0;0;0;0;6;0;15326;2;0;0;0;0;0;7;0;12244;0;0;0;0;8;0;12117;0;0;0;0;9;0;6615;0;0;0;0
12.02.20;20:20:00;1;630;21851;0;2;0;9087;0;0;0;0;3;0;5915;0;0;0;0;4;0;8611;0;0;0;0;5;0;20660;2;0;0;0;0;0;6;0;15326;2;0;0;0;0;0;7;0;12244;0;0;0;0;8;0;12117;0;0;0;0;9;0;6615;0;0;0;0
12.02.20;20:15:00;1;874;21800;0;2;0;9087;0;0;0;0;3;0;5915;0;0;0;0;4;0;8611;0;0;0;0;5;0;20660;2;0;0;0;0;0;6;0;15326;2;0;0;0;0;0;7;0;12244;0;0;0;0;8;0;12117;0;0;0;0;9;0;6615;0;0;0;0
12.02.20;20:10:00;1;536;21732;0;2;0;9087;0;0;0;0;3;0;5915;0;0;0;0;4;0;8611;0;0;0;0;5;0;20660;2;0;0;0;0;0;6;0;15326;2;0;0;0;0;0;7;0;12244;0;0;0;0;8;0;12117;0;0;0;0;9;0;6615;0;0;0;0
12.02.20;20:05:00;1;548;21687;0;2;0;9087;0;0;0;0;3;0;5915;0;0;0;0;4;0;8611;0;0;0;0;5;0;20660;2;0;0;0;0;0;6;0;15326;2;0;0;0;0;0;7;0;12244;0;0;0;0;8;0;12117;0;0;0;0;9;0;6615;0;0;0;0
12.02.20;20:00:00;1;548;21642;0;2;0;9087;0;0;0;0;3;0;5915;0;0;0;0;4;0;8611;0;0;0;0;5;0;20660;2;0;0;0;0;0;6;0;15326;2;0;0;0;0;0;7;0;12244;0;0;0;0;8;0;12117;0;0;0;0;9;0;6615;0;0;0;0
12.02.20;19:55:00;1;617;21595;0;2;0;9087;0;0;0;0;3;0;5915;0;0;0;0;4;0;8611;0;0;0;0;5;0;20660;2;0;0;0;0;0;6;0;15326;2;0;0;0;0;0;7;0;12244;0;0;0;0;8;0;12117;0;0;0;0;9;0;6615;0;0;0;0
12.02.20;19:50:00;1;592;21522;0;2;0;9087;0;0;0;0;3;0;5915;0;0;0;0;4;0;8611;0;0;0;0;5;0;20660;2;0;0;0;0;0;6;0;15326;2;0;0;0;0;0;7;0;12244;0;0;0;0;8;0;12117;0;0;0;0;9;0;6615;0;0;0;0
12.02.20;19:45:00;1;749;21471;0;2;0;9087;0;0;0;0;3;0;5915;0;0;0;0;4;0;8611;0;0;0;0;5;0;20660;2;0;0;0;0;0;6;0;15326;2;0;0;0;0;0;7;0;12244;0;0;0;0;8;0;12117;0;0;0;0;9;0;6615;0;0;0;0
12.02.20;19:40:00;1;591;21414;0;2;0;9087;0;0;0;0;3;0;5915;0;0;0;0;4;0;8611;0;0;0;0;5;0;20660;2;0;0;0;0;0;6;0;15326;2;0;0;0;0;0;7;0;12244;0;0;0;0;8;0;12117;0;0;0;0;9;0;6615;0;0;0;0
12.02.20;19:35:00;1;592;21365;0;2;0;9087;0;0;0;0;3;0;5915;0;0;0;0;4;0;8611;0;0;0;0;5;0;20660;2;0;0;0;0;0;6;0;15326;2;0;0;0;0;0;7;0;12244;0;0;0;0;8;0;12117;0;0;0;0;9;0;6615;0;0;0;0
12.02.20;19:30:00;1;624;21315;0;2;0;9087;0;0;0;0;3;0;5915;0;0;0;0;4;0;8611;0;0;0;0;5;0;20660;2;0;0;0;0;0;6;0;15326;2;0;0;0;0;0;7;0;12244;0;0;0;0;8;0;12117;0;0;0;0;9;0;6615;0;0;0;0
12.02.20;19:25:00;1;1466;21262;0;2;0;9087;0;0;0;0;3;0;5915;0;0;0;0;4;0;8611;0;0;0;0;5;0;20660;2;0;0;0;0;0;6;0;15326;2;0;0;0;0;0;7;0;12244;0;0;0;0;8;0;12117;0;0;0;0;9;0;6615;0;0;0;0
12.02.20;19:20:00;1;631;21175;0;2;0;9087;0;0;0;0;3;0;5915;0;0;0;0;4;0;8611;0;0;0;0;5;0;20660;2;0;0;0;0;0;6;0;15326;2;0;0;0;0;0;7;0;12244;0;0;0;0;8;0;12117;0;0;0;0;9;0;6615;0;0;0;0
12.02.20;19:15:00;1;838;21122;0;2;0;9087;0;0;0;0;3;0;5915;0;0;0;0;4;0;8611;0;0;0;0;5;0;20660;2;0;0;0;0;0;6;0;15326;2;0;0;0;0;0;7;0;12244;0;0;0;0;8;0;12117;0;0;0;0;9;0;6615;0;0;0;0
12.02.20;19:10:00;1;1154;21050;0;2;0;9087;0;0;0;0;3;0;5915;0;0;0;0;4;0;8611;0;0;0;0;5;0;20660;2;0;0;0;0;0;6;0;15326;2;0;0;0;0;0;7;0;12244;0;0;0;0;8;0;12117;0;0;0;0;9;0;6615;0;0;0;0
12.02.20;19:05:00;1;1217;20952;0;2;0;9087;0;0;0;0;3;0;5915;0;0;0;0;4;0;8611;0;0;0;0;5;0;20660;2;0;0;0;0;0;6;0;15326;2;0;0;0;0;0;7;0;12244;0;0;0;0;8;0;12117;0;0;0;0;9;0;6615;0;0;0;0
12.02.20;19:00:00;1;1226;20850;0;2;0;9087;0;0;0;0;3;0;5915;0;0;0;0;4;0;8611;0;0;0;0;5;0;20660;2;0;0;0;0;0;6;0;15326;2;0;0;0;0;0;7;0;12244;0;0;0;0;8;0;12117;0;0;0;0;9;0;6615;0;0;0;0
12.02.20;18:55:00;1;956;20724;0;2;0;9087;0;0;0;0;3;0;5915;0;0;0;0;4;0;8611;0;0;0;0;5;0;20660;2;0;0;0;0;0;6;0;15326;2;0;0;0;0;0;7;0;12244;0;0;0;0;8;0;12117;0;0;0;0;9;0;6615;0;0;0;0
12.02.20;18:50:00;1;834;20644;0;2;0;9087;0;0;0;0;3;0;5915;0;0;0;0;4;0;8611;0;0;0;0;5;0;20660;2;0;0;0;0;0;6;0;15326;2;0;0;0;0;0;7;0;12244;0;0;0;0;8;0;12117;0;0;0;0;9;0;6615;0;0;0;0
12.02.20;18:45:00;1;534;20579;0;2;0;9087;0;0;0;0;3;0;5915;0;0;0;0;4;0;8611;0;0;0;0;5;0;20660;2;0;0;0;0;0;6;0;15326;2;0;0;0;0;0;7;0;12244;0;0;0;0;8;0;12117;0;0;0;0;9;0;6615;0;0;0;0
12.02.20;18:40:00;1;516;20535;0;2;0;9087;0;0;0;0;3;0;5915;0;0;0;0;4;0;8611;0;0;0;0;5;0;20660;2;0;0;0;0;0;6;0;15326;2;0;0;0;0;0;7;0;12244;0;0;0;0;8;0;12117;0;0;0;0;9;0;6615;0;0;0;0
12.02.20;18:35:00;1;516;20491;0;2;0;9087;0;0;0;0;3;0;5915;0;0;0;0;4;0;8611;0;0;0;0;5;0;20660;2;0;0;0;0;0;6;0;15326;2;0;0;0;0;0;7;0;12244;0;0;0;0;8;0;12117;0;0;0;0;9;0;6615;0;0;0;0
12.02.20;18:30:00;1;878;20448;0;2;0;9087;0;0;0;0;3;0;5915;0;0;0;0;4;0;8611;0;0;0;0;5;0;20660;2;0;0;0;0;0;6;0;15326;2;0;0;0;0;0;7;0;12244;0;0;0;0;8;0;12117;0;0;0;0;9;0;6615;0;0;0;0
12.02.20;18:25:00;1;1340;20356;0;2;0;9087;0;0;0;0;3;0;5915;0;0;0;0;4;0;8611;0;0;0;0;5;0;20660;2;0;0;0;0;0;6;0;15326;2;0;0;0;0;0;7;0;12244;0;0;0;0;8;0;12117;0;0;0;0;9;0;6615;0;0;0;0
12.02.20;18:20:00;1;2490;20212;0;2;0;9087;0;0;0;0;3;0;5915;0;0;0;0;4;0;8611;0;0;0;0;5;0;20660;2;0;0;0;0;0;6;0;15326;2;0;0;0;0;0;7;0;12244;0;0;0;0;8;0;12117;0;0;0;0;9;0;6615;0;0;0;0
12.02.20;18:15:00;1;2574;20004;0;2;0;9087;0;0;0;0;3;0;5915;0;0;0;0;4;0;8611;0;0;0;0;5;0;20660;2;0;0;0;0;0;6;0;15326;2;0;0;0;0;0;7;0;12244;0;0;0;0;8;0;12117;0;0;0;0;9;0;6615;0;0;0;0
12.02.20;18:10:00;1;3074;19790;0;2;0;9087;0;0;0;0;3;0;5915;0;0;0;0;4;0;8611;0;0;0;0;5;0;20660;2;0;0;0;0;0;6;0;15326;2;0;0;0;0;0;7;0;12244;0;0;0;0;8;0;12117;0;0;0;0;9;0;6615;0;0;0;0
12.02.20;18:05:00;1;1393;19504;0;2;0;9087;0;0;0;0;3;0;5915;0;0;0;0;4;0;8611;0;0;0;0;5;0;20660;2;0;0;0;0;0;6;0;15326;2;0;0;0;0;0;7;0;12244;0;0;0;0;8;0;12117;0;0;0;0;9;0;6615;0;0;0;0
12.02.20;18:00:00;1;1113;19367;0;2;0;9087;0;0;0;0;3;0;5915;0;0;0;0;4;0;8611;0;0;0;0;5;0;20660;2;0;0;0;0;0;6;0;15326;2;0;0;0;0;0;7;0;12244;0;0;0;0;8;0;12117;0;0;0;0;9;0;6615;0;0;0;0
12.02.20;17:55:00;1;1047;19274;0;2;0;9087;0;0;0;0;3;0;5915;0;0;0;0;4;0;8611;0;0;0;0;5;0;20660;2;0;0;0;0;0;6;0;15326;2;0;0;0;0;0;7;0;12244;0;0;0;0;8;0;12117;0;0;0;0;9;0;6615;0;0;0;0
12.02.20;17:50:00;1;913;19188;0;2;0;9087;0;0;0;0;3;0;5915;0;0;0;0;4;0;8611;0;0;0;0;5;0;20660;2;0;0;0;0;0;6;0;15326;2;0;0;0;0;0;7;0;12244;0;0;0;0;8;0;12117;0;0;0;0;9;0;6615;0;0;0;0
12.02.20;17:45:00;1;539;19115;0;2;0;9087;0;0;0;0;3;0;5915;0;0;36;1;4;0;8611;0;0;0;0;5;0;20660;2;0;0;0;0;0;6;0;15326;2;0;0;0;0;0;7;0;12244;0;0;0;0;8;0;12117;0;0;0;0;9;0;6615;0;0;0;0
12.02.20;17:40:00;1;501;19071;0;2;0;9087;0;0;0;0;3;0;5915;6;0;261;13;4;0;8611;0;0;0;0;5;0;20660;2;0;0;0;0;0;6;0;15326;2;0;0;0;0;0;7;0;12244;0;0;0;0;8;0;12117;0;0;0;0;9;0;6615;0;0;0;0
12.02.20;17:35:00;1;597;19029;0;2;0;9087;0;0;231;8;3;0;5915;6;0;299;13;4;0;8611;0;0;22;3;5;0;20660;2;0;0;0;0;0;6;0;15326;2;0;0;0;0;0;7;0;12244;0;0;0;0;8;0;12117;0;0;0;0;9;0;6615;0;0;0;0
12.02.20;17:30:00;1;564;18964;0;2;0;9087;7;0;312;10;3;0;5915;6;0;366;13;4;0;8611;2;0;83;9;5;0;20660;2;4;11;90;88;12;6;0;15326;2;0;0;0;0;3;7;0;12244;0;0;0;0;8;0;12117;0;0;0;0;9;0;6615;0;0;0;0
12.02.20;17:25:00;1;624;18916;0;2;0;9087;7;0;343;10;3;0;5915;6;0;408;13;4;0;8611;1;0;111;9;5;0;20660;1;3;15;322;319;19;6;0;15326;2;0;0;7;0;6;7;0;12244;0;0;0;0;8;0;12117;0;0;0;0;9;0;6615;0;0;0;0
12.02.20;17:20:00;1;691;18863;0;2;0;9087;7;0;276;8;3;0;5915;4;0;363;13;4;0;8611;1;0;59;4;5;0;20660;26;304;304;147;146;9;6;0;15326;1;1;0;12;12;6;7;0;12244;0;0;0;0;8;0;12117;0;0;0;0;9;0;6615;0;0;0;0
12.02.20;17:15:00;1;983;18803;0;2;0;9087;0;0;0;0;3;0;5915;0;0;0;0;4;0;8611;0;0;0;0;5;0;20660;2;0;0;0;0;0;6;0;15326;2;0;0;0;0;0;7;0;12244;0;0;0;0;8;0;12117;0;0;0;0;9;0;6615;0;0;0;0
12.02.20;17:10:00;1;1023;18720;0;2;0;9087;0;0;83;3;3;0;5915;0;0;227;11;4;0;8611;0;0;0;0;5;0;20660;2;0;0;0;0;0;6;0;15326;0;0;0;0;0;0;7;0;12244;0;0;0;0;8;0;12117;0;0;0;0;9;0;6615;0;0;0;0
12.02.20;17:05:00;1;1580;18617;0;2;0;9087;6;0;298;11;3;0;5915;6;0;343;14;4;0;8611;2;0;73;11;5;0;20660;2;0;0;111;110;7;6;0;15326;2;2;0;49;80;7;7;0;12244;0;0;0;0;8;0;12117;0;0;0;0;9;0;6615;0;0;0;0
12.02.20;17:00:00;1;1271;18513;0;2;0;9087;6;0;358;11;3;0;5915;6;2;423;14;4;0;8611;1;0;139;11;5;0;20660;23;0;0;394;518;22;6;0;15326;23;6;2;180;502;21;7;0;12244;0;0;227;12;8;0;12117;0;0;229;12;9;0;6615;6;0;295;11
12.02.20;16:55:00;1;929;18408;0;2;0;9087;6;0;396;12;3;1;5915;6;5;456;14;4;0;8611;1;0;206;12;5;6;20660;4;0;0;417;655;23;6;0;15326;23;3;6;454;573;22;7;0;12244;6;0;384;16;8;0;12117;6;0;390;16;9;0;6615;6;1;415;12
12.02.20;16:50:00;1;627;18333;0;2;6;9087;6;18;389;12;3;0;5915;6;0;527;15;4;0;8611;3;0;203;12;5;80;20659;4;14;19;381;603;24;6;52;15326;4;22;32;497;475;23;7;0;12244;6;2;432;16;8;0;12117;6;2;435;16;9;0;6615;6;2;472;12
12.02.20;16:45:00;1;635;18281;0;2;21;9087;6;37;397;12;3;4;5915;4;16;504;15;4;2;8611;3;2;199;12;5;133;20652;4;46;42;381;603;24;6;86;15321;4;33;45;497;475;23;7;0;12244;6;4;467;17;8;4;12117;6;8;450;16;9;0;6615;6;7;493;12
12.02.20;16:40:00;1;591;18226;0;2;81;9085;4;117;366;13;3;11;5914;6;18;548;15;4;43;8611;3;45;198;13;5;221;20641;4;99;86;381;603;24;6;150;15314;4;73;89;497;475;23;7;38;12244;6;68;447;17;8;38;12116;6;70;446;17;9;3;6615;6;9;543;12
12.02.20;16:35:00;1;1022;18150;0;2;114;9078;4;151;385;13;3;63;5913;4;102;453;16;4;69;8607;3;72;198;13;5;264;20621;4;117;106;381;603;24;6;181;15301;4;86;98;497;475;23;7;70;12241;4;114;460;17;8;65;12113;4;109;480;17;9;7;6615;6;11;564;12
12.02.20;16:30:00;1;1105;18061;0;2;100;9069;4;136;384;13;3;22;5908;6;37;553;16;4;51;8601;3;53;198;13;5;250;20600;4;112;101;381;603;24;6;172;15286;4;90;102;497;475;23;7;75;12236;4;110;434;17;8;67;12108;4;102;466;17;9;7;6615;4;13;553;13
12.02.20;16:25:00;1;1079;17969;0;2;281;9060;4;325;397;14;3;169;5906;4;211;509;16;4;222;8597;5;231;236;13;5;554;20577;4;279;235;409;634;24;6;415;15270;4;208;221;581;565;23;7;279;12229;4;323;477;17;8;274;12102;4;320;479;17;9;148;6614;4;181;531;13
12.02.20;16:20:00;1;1064;17878;0;2;378;9037;4;425;406;14;3;233;5892;4;283;515;16;4;319;8579;5;332;239;13;5;714;20529;4;353;300;423;688;24;6;529;15234;4;262;286;581;572;23;7;415;12207;4;457;479;17;8;419;12080;4;461;488;17;9;223;6602;4;264;522;14
12.02.20;16:15:00;1;1081;17789;0;2;392;9006;4;437;408;14;3;240;5873;4;286;514;17;4;328;8552;5;341;241;14;5;773;20470;4;390;322;419;691;25;6;567;15190;4;275;288;595;575;23;7;418;12172;4;457;485;17;8;415;12045;4;465;477;17;9;221;6583;4;260;524;14
12.02.20;16:10:00;1;1115;17698;0;2;508;8973;4;557;411;14;3;315;5853;4;365;511;17;4;436;8525;5;453;244;14;5;988;20405;4;491;421;429;696;25;6;736;15142;4;377;382;600;582;23;7;546;12137;4;592;485;17;8;541;12011;4;594;486;17;9;287;6565;4;332;537;14
12.02.20;16:05:00;1;1100;17580;0;2;589;8931;4;643;414;14;3;371;5827;4;422;522;17;4;513;8489;5;534;246;14;5;1140;20321;4;571;482;425;701;25;6;848;15080;4;427;438;603;588;23;7;627;12093;4;683;491;17;8;637;11966;4;687;493;17;9;339;6541;4;383;539;14
12.02.20;16:00:00;1;1476;17488;0;2;392;8882;4;435;410;14;3;243;5796;4;292;520;17;4;330;8447;5;344;242;14;5;803;20228;4;406;338;416;665;25;6;602;15009;4;314;328;589;571;23;7;437;12040;4;485;488;18;8;452;11913;4;497;482;17;9;242;6513;4;281;526;14
12.02.20;15:55:00;1;1112;17349;0;2;223;8849;4;262;384;14;3;136;5775;4;176;493;17;4;176;8418;5;183;222;14;5;484;20162;4;237;197;394;645;25;6;345;14961;4;154;167;510;498;23;7;228;12003;4;265;485;18;8;233;11874;4;277;478;17;9;129;6492;4;159;466;14
12.02.20;15:50:00;1;1166;17254;0;2;102;8829;4;136;371;14;3;32;5763;4;55;495;17;4;63;8403;3;66;200;14;5;251;20123;4;114;102;381;603;25;6;69;14933;4;26;31;585;605;22;7;77;11983;4;112;432;18;8;76;11854;4;114;434;17;9;8;6481;6;14;557;14
12.02.20;15:45:00;1;1145;17156;0;2;15;8821;6;27;412;15;3;4;5761;6;9;532;17;4;12;8398;3;13;199;15;5;153;20104;4;60;54;381;603;25;6;47;14928;1;16;16;334;328;23;7;14;11976;4;23;457;18;8;14;11847;4;25;460;18;9;0;6480;6;5;533;14
12.02.20;15:40:00;1;1178;17055;0;2;161;8819;4;199;381;16;3;89;5760;4;130;504;18;4;120;8396;3;124;224;15;5;395;20090;4;192;162;397;617;25;6;274;14923;4;123;136;506;505;24;7;106;11975;4;147;456;18;8;112;11846;4;150;447;18;9;47;6480;6;66;522;15
12.02.20;15:35:00;1;1653;16951;0;2;282;8806;4;326;393;16;3;170;5753;4;212;517;18;4;232;8387;5;241;234;15;5;623;20055;4;311;263;406;652;25;6;467;14898;4;242;250;593;567;24;7;275;11966;4;325;476;19;8;279;11837;4;326;471;18;9;152;6476;4;188;515;15
12.02.20;15:30:00;1;1204;16825;0;2;433;8783;4;482;406;17;3;265;5739;4;315;513;18;4;373;8367;5;388;240;16;5;922;20002;4;466;389;421;697;26;6;685;14858;4;338;346;591;572;24;7;482;11943;4;526;477;19;8;478;11814;4;523;471;18;9;254;6463;4;296;530;16
12.02.20;15:25:00;1;1751;16727;0;2;465;8747;4;517;405;17;3;285;5717;4;335;522;19;4;400;8337;5;417;244;16;5;1008;19924;4;504;425;424;690;26;6;744;14801;4;386;387;596;577;24;7;513;11904;4;562;488;19;8;513;11775;4;557;474;19;9;275;6443;4;318;525;16
12.02.20;15:20:00;1;1264;16589;0;2;681;8709;4;743;412;18;3;424;5694;4;480;528;19;4;598;8304;5;623;245;16;5;1406;19839;4;713;601;432;696;26;6;1042;14738;4;546;542;611;587;24;7;737;11862;4;802;491;19;8;744;11733;4;798;484;19;9;399;6420;4;448;538;17
12.02.20;15:15:00;1;1242;16488;0;2;1030;8652;4;1104;421;18;3;625;5658;4;691;543;19;4;865;8254;5;901;250;17;5;1935;19719;4;1022;838;439;721;26;6;1472;14648;4;755;742;618;585;24;7;1178;11800;4;1242;496;19;8;1142;11671;4;1213;489;19;9;601;6387;4;661;542;17
12.02.20;15:10:00;1;1250;16387;0;2;1500;8567;4;1589;425;18;3;920;5607;4;997;557;20;4;1256;8183;5;1308;254;17;5;2736;19553;4;1454;1196;442;713;26;6;1959;14525;4;998;987;625;588;24;7;1507;11704;4;1583;490;19;8;1446;11577;4;1529;490;19;9;772;6337;4;840;561;17
12.02.20;15:05:00;1;1202;16286;0;2;977;8441;4;1046;410;18;3;628;5530;4;690;527;19;4;868;8077;5;904;249;17;5;1854;19323;4;965;812;430;700;26;6;1440;14351;4;750;736;614;587;24;7;1173;11580;4;1240;491;19;8;1211;11457;4;1276;481;19;9;667;6273;4;727;524;17
12.02.20;15:00:00;1;1248;16181;0;2;616;8357;4;674;408;18;3;382;5476;4;439;522;19;4;530;8003;5;552;247;17;5;1266;19175;4;642;544;421;688;26;6;948;14237;4;480;489;596;578;24;7;610;11479;4;669;493;20;8;616;11352;4;673;482;19;9;333;6216;4;375;520;17
12.02.20;14:55:00;1;1168;16080;0;2;698;8306;4;758;409;18;3;439;5444;4;494;517;19;4;612;7958;5;637;245;17;5;1423;19065;4;727;608;429;701;26;6;1069;14154;4;546;551;598;578;24;7;747;11428;4;800;483;20;8;758;11301;4;808;481;19;9;406;6188;4;457;529;17
12.02.20;14:50:00;1;2691;15954;0;2;533;8247;4;587;409;19;3;332;5407;4;383;513;20;4;470;7907;5;490;243;17;5;1166;18949;4;590;497;420;685;26;6;875;14066;4;434;442;597;576;24;7;642;11366;4;698;487;20;8;652;11238;4;703;476;20;9;351;6154;4;398;533;17
12.02.20;14:45:00;1;1141;15791;0;2;970;8202;4;1042;417;19;3;609;5379;4;671;535;20;4;850;7867;5;885;243;18;5;2023;18849;4;1051;879;431;702;27;6;1496;13991;4;772;767;606;580;24;7;1120;11312;4;1193;489;20;8;1105;11183;4;1166;495;20;9;590;6125;4;647;540;18
12.02.20;14:40:00;1;1055;15697;0;2;1227;8123;4;1306;416;20;3;781;5329;4;852;541;20;4;1067;7797;5;1112;251;18;5;2422;18677;4;1283;1051;434;708;27;6;1800;13862;4;918;905;611;588;24;7;1691;11220;4;1790;504;20;8;1651;11093;4;1741;503;20;9;880;6077;4;954;550;18
12.02.20;14:35:00;1;1223;15606;0;2;1513;8018;4;1606;416;20;3;928;5263;4;1006;539;21;4;1268;7707;5;1321;250;18;5;2903;18470;4;1560;1270;441;707;27;6;2164;13705;4;1104;1071;617;586;24;7;1979;11082;4;2091;515;20;8;1967;10957;4;2070;498;20;9;1096;6004;4;1176;537;18
12.02.20;14:30:00;1;1074;15512;0;2;1476;7892;4;1568;432;19;3;937;5185;4;1015;540;20;4;1250;7602;5;1302;257;18;5;2821;18213;4;1514;1228;446;720;27;6;2095;13514;4;1077;1026;628;576;24;7;2344;10917;4;2456;514;20;8;2279;10795;4;2389;489;20;9;1228;5914;4;1314;539;18
12.02.20;14:25:00;1;1025;15419;0;2;827;7765;4;889;408;19;3;531;5104;4;594;533;20;4;746;7494;5;777;251;18;5;1706;17977;4;882;739;432;704;27;6;1296;13336;4;651;643;593;574;24;7;1008;10724;4;1073;492;20;8;1027;10604;4;1091;490;20;9;559;5811;4;617;540;18
12.02.20;14:20:00;1;817;15331;0;2;604;7695;4;660;409;19;3;371;5059;4;426;523;20;4;524;7431;5;546;241;18;5;1264;17842;4;645;537;426;687;27;6;936;13232;4;488;494;600;576;25;7;594;10638;4;648;482;21;8;595;10517;4;651;484;20;9;318;5763;4;364;533;18
12.02.20;14:15:00;1;1983;15250;0;2;879;7646;4;945;413;20;3;560;5029;4;622;530;21;4;791;7389;5;824;247;19;5;1798;17731;4;937;778;431;696;27;6;1356;13151;4;680;684;612;585;25;7;1022;10589;4;1097;484;21;8;1036;10467;4;1097;487;21;9;361;5737;4;398;356;12
12.02.20;14:10:00;1;924;15100;0;2;584;7573;4;642;411;20;3;370;4983;4;422;513;21;4;514;7323;5;536;245;19;5;1221;17584;4;605;519;424;697;28;6;922;13039;4;476;478;594;577;25;7;692;10505;4;743;482;22;8;697;10381;4;743;473;21;9;377;5692;4;425;519;18